#timestamp,LO_Frequency,Hit,StdDev 
1681239615.3,286047000.1,N
1681239635.2,286047001.4,N
1681239655.9,286047002.0,N
1681239675.7,286047002.1,N
1681239695.6,286047004.3,N
1681239715.4,286047004.3,N
1681239735.3,286047002.3,N
1681239755.1,286047002.1,N
1681239756.0,286047002.1,N
1681239775.8,286047001.8,N
1681239795.7,286047001.8,N
1681239815.5,286047001.7,N
1681239835.3,286046999.9,N
1681239855.2,286047002.0,N
1681239875.0,286047000.8,N
1681239875.9,286047000.8,N
1681239895.8,286047000.0,N
1681239915.6,286047000.5,N
1681239935.4,286046999.7,N
1681239955.3,286047002.7,N
1681239975.1,286047000.2,N
1681239995.9,286047000.3,N
1681240015.7,286046999.8,N
1681240035.5,286047002.5,N
1681240055.4,286047001.6,N
1681240075.2,286047003.6,N
1681240095.0,286047003.6,N
1681240095.9,286047003.6,N
1681240115.8,286047006.3,Y
1681240135.6,286047004.7,P
1681240155.5,286047007.4,P
1681240175.3,286047006.1,N
1681240195.1,286047008.3,Y
1681240215.9,286047005.2,P
1681240235.7,286047007.0,P
1681240255.6,286047007.4,P
1681240275.4,286047004.6,Y
1681240295.2,286047000.3,P
1681240315.1,286047002.7,N
1681240316.0,286047002.7,N
1681240335.8,286047001.1,N
1681240355.6,286047000.8,N
1681240375.5,286047000.9,N
1681240395.3,286047001.6,N
1681240415.2,286047003.3,N
1681240435.9,286047005.4,Y
1681240455.7,286047001.3,P
1681240475.6,286047003.9,P
1681240495.4,286047005.5,P
1681240515.2,286047005.2,Y
1681240535.1,286047001.2,P
1681240536.0,286047001.2,N
1681240555.8,286047000.7,N
1681240575.7,286047003.9,Y
1681240595.5,286047002.0,P
1681240615.3,286047003.9,P
1681240635.2,286047005.2,P
1681240655.0,286047004.6,Y
1681240655.9,286047004.6,P
1681240675.7,286047003.8,P
1681240695.6,286047000.1,N
1681240715.4,286046999.1,N
1681240735.3,286046997.9,N
1681240755.1,286046995.3,N
1681240756.0,286046995.3,N
1681240775.8,286046999.2,N
1681240795.7,286046998.8,N
1681240815.5,286046998.9,N
1681240835.3,286046999.3,N
1681240855.2,286046998.7,N
1681240875.0,286046997.7,N
1681240875.9,286046997.7,N
1681240895.8,286046996.4,N
1681240915.6,286046993.6,N
1681240935.4,286046996.3,N
1681240955.3,286046993.5,N
1681240975.1,286046992.1,N
1681240995.8,286046990.5,N
1681241015.7,286046990.5,N
1681241035.5,286046992.6,N
1681241055.4,286046991.0,N
1681241075.2,286046990.6,N
1681241095.0,286046990.5,N
1681241095.9,286046990.5,N
1681241115.8,286046990.1,N
1681241135.6,286046990.8,N
1681241155.4,286046989.2,N
1681241175.3,286046989.1,N
1681241195.1,286046991.1,N
1681241215.9,286046991.3,N
1681241235.7,286046988.7,Y
1681241255.5,286046994.9,P
1681241275.4,286046995.4,P
1681241295.2,286046995.8,P
1681241315.1,286046997.8,Y
1681241316.0,286046997.8,P
1681241335.8,286047003.8,N
1681241355.6,286047004.3,N
1681241375.5,286047001.5,N
1681241395.3,286047004.4,N
1681241415.1,286047003.9,N
1681241435.9,286047003.8,N
1681241455.7,286047003.8,N
1681241475.6,286047003.4,N
1681241495.4,286047005.7,N
1681241515.2,286047004.1,N
1681241535.1,286047002.2,N
1681241536.0,286047002.2,N
1681241555.8,286047003.8,N
1681241575.6,286047001.7,N
1681241595.5,286047001.3,N
1681241615.3,286047001.6,N
1681241635.1,286047005.8,N
1681241655.9,286047004.9,N
1681241675.7,286047005.5,N
1681241695.6,286047003.9,N
1681241715.4,286047002.0,N
1681241735.2,286047004.4,N
1681241755.1,286047001.8,N
1681241756.0,286047001.8,N
1681241775.8,286047002.0,N
1681241795.6,286047003.7,N
1681241815.5,286047004.4,N
1681241835.3,286047002.5,N
1681241855.2,286047002.1,N
1681241875.9,286047002.1,N
1681241895.7,286047001.3,N
1681241915.6,286046999.8,N
1681241935.4,286047002.4,N
1681241955.2,286047002.1,N
1681241975.1,286046999.7,N
1681241976.0,286046999.7,N
1681241995.8,286047002.0,N
1681242015.7,286047004.4,N
1681242035.5,286047003.1,N
1681242055.3,286047003.3,N
1681242075.2,286047003.8,N
1681242095.9,286047003.5,N
1681242115.7,286047005.2,Y
1681242135.6,286047001.7,P
1681242155.4,286047001.6,P
1681242175.3,286047000.9,N
1681242195.1,286046999.7,N
1681242196.0,286046999.7,N
1681242215.8,286046998.1,N
1681242235.7,286047001.2,N
1681242255.5,286047000.3,N
1681242275.3,286047000.5,N
1681242295.2,286046999.8,N
1681242315.0,286047000.4,N
1681242315.9,286047000.4,N
1681242335.8,286047000.7,N
1681242355.6,286047000.7,N
1681242375.4,286047000.8,N
1681242395.3,286047002.4,N
1681242415.1,286047001.9,N
1681242435.8,286047003.2,N
1681242455.7,286047003.8,Y
1681242475.5,286047000.3,P
1681242495.4,286047000.9,P
1681242515.2,286046998.1,P
1681242535.0,286046998.3,N
1681242535.9,286046998.3,N
1681242555.8,286046999.8,N
1681242575.6,286047002.3,N
1681242595.4,286046999.8,N
1681242615.3,286047002.2,N
1681242635.1,286047000.5,N
1681242655.9,286046998.6,N
1681242675.7,286046999.0,N
1681242695.5,286046996.5,N
1681242715.4,286046998.8,N
1681242735.2,286046998.9,N
1681242755.0,286046998.9,N
1681242755.9,286046998.9,N
1681242775.8,286047000.8,N
1681242795.6,286047000.8,N
1681242815.5,286047000.1,N
1681242835.3,286046998.3,N
1681242855.1,286047000.6,N
1681242875.9,286047002.3,N
1681242895.7,286047000.4,N
1681242915.5,286047000.0,N
1681242935.4,286046998.9,N
1681242955.2,286046999.3,N
1681242975.1,286047000.9,N
1681242976.0,286047000.9,N
1681242995.8,286047000.9,N
1681243015.6,286046998.4,N
1681243035.5,286046998.3,N
1681243055.3,286046999.0,N
1681243075.1,286046994.9,Y
1681243095.9,286046995.5,P
1681243115.7,286046995.6,N
1681243135.6,286046993.6,P
1681243155.4,286046993.0,Y
1681243175.2,286046997.7,P
1681243195.1,286046998.7,N
1681243196.0,286046998.7,N
